Location: *
(45.5667°S, 177.5167°W)
Time: 15:41:22
(UTC+00:00)

Cosmos 2278 - Pass Details

Date: 29 May 2022
Orbit: 838 x 854 km, 71.1° (Epoch: 28 June)

Event Time Altitude Azimuth Distance (km) Brightness Sun altitude
Rises 05:01:47 0° 201° (SSW) 3,438 6.9 -7.7°
Reaches altitude 10° 05:04:29 10° 192° (SSW) 2,495 6.1 -8.1°
Maximum altitude 05:09:42 35° 127° (SE) 1,348 4.3 -9.0°
Drops below altitude 10° 05:14:52 10° 61° (ENE) 2,467 5.8 -9.8°
Sets 05:17:30 0° 52° (NE) 3,394 6.5 -10.3°
